Wind_Speed
31 31 31 31 32 32 33 33 34 35 35 35 36 36 35 35 35 35 35 35 35 36 37 37 38 38 39 40 40 41 42 43 43 44 46 47 48 48 49 50 51 53 53
28 29 29 30 30 31 31 32 33 34 34 35 35 35 35 36 36 36 36 36 36 36 37 37 38 39 40 40 40 41 42 43 44 45 46 47 47 48 49 50 51 52 53
26 27 28 28 29 29 30 31 32 32 33 33 34 35 36 36 36 36 36 37 37 37 37 38 38 39 39 40 41 41 41 42 43 44 45 46 46 47 48 49 50 51 51
25 26 27 27 28 29 30 31 31 32 32 33 35 35 36 36 36 36 36 37 37 38 38 38 38 38 38 39 40 41 41 42 43 44 45 46 47 47 47 48 48 49 50
25 26 26 27 28 29 30 31 32 33 34 35 36 36 36 36 37 37 37 38 38 39 39 39 39 39 39 39 39 40 41 42 43 45 46 47 48 48 48 49 49 50 51
25 26 27 28 28 29 30 31 32 34 35 36 36 37 37 37 37 38 38 38 38 38 39 39 40 40 41 41 41 41 42 43 44 45 46 47 48 49 50 50 50 51 52
26 27 28 29 30 31 32 33 34 34 35 36 36 36 37 37 37 37 38 38 38 39 39 39 40 41 41 42 42 43 43 44 44 45 46 48 49 50 51 52 52 53 53
28 29 29 30 31 32 33 33 34 34 35 35 36 37 37 37 37 38 39 40 40 40 40 40 41 41 42 43 43 44 45 46 46 47 48 49 50 51 52 52 53 54 55
29 30 31 32 32 33 33 34 34 35 35 36 37 37 37 38 38 39 40 40 40 41 41 42 42 43 43 44 45 45 46 47 47 48 49 49 50 51 52 53 54 55 55
31 32 33 34 34 34 35 35 36 36 37 38 38 38 39 39 40 40 41 41 41 41 42 43 43 44 44 45 45 46 46 47 48 48 49 50 51 52 53 54 55 56 56
33 33 34 35 36 36 36 37 37 38 39 39 39 39 39 40 40 41 41 41 41 42 42 43 44 44 45 45 46 46 47 48 48 49 50 51 52 53 54 55 55 56 56
35 35 36 36 37 37 38 38 39 39 39 39 39 40 40 41 41 41 41 41 42 43 43 44 44 44 45 46 46 47 47 48 49 49 50 51 52 52 53 54 54 54 54
37 37 37 38 38 38 39 39 40 40 41 41 41 41 42 42 42 42 43 43 43 43 43 43 44 44 45 45 46 46 47 48 49 50 50 51 52 52 52 52 52 52 52
38 39 39 40 40 40 41 41 41 41 42 42 42 42 43 43 43 43 43 43 43 43 43 43 44 44 45 45 46 46 47 48 48 49 50 50 51 50 50 50 50 50 50
40 41 41 41 41 42 42 42 42 42 43 43 43 43 43 43 43 43 43 43 43 43 44 44 44 44 44 44 45 46 46 47 48 49 49 49 49 48 48 49 49 49 49
42 42 42 42 42 43 43 43 43 43 43 43 43 43 43 43 43 43 43 43 43 44 43 43 43 43 43 44 44 45 46 47 48 48 48 47 47 47 47 47 47 47 46
43 43 43 43 44 44 44 44 43 43 43 43 43 43 43 43 43 43 43 43 43 43 42 42 42 42 43 43 44 45 45 46 46 46 46 45 45 45 45 45 44 44 44
44 44 44 44 44 44 44 44 44 43 43 43 43 42 42 42 42 42 42 42 42 42 42 41 41 41 42 43 43 44 44 45 45 44 44 43 43 43 43 42 42 41 41
44 44 43 43 43 43 43 43 43 43 43 43 43 42 42 42 42 42 42 42 41 41 40 40 41 41 42 42 43 43 43 43 43 42 41 42 42 41 41 40 39 38 37
43 43 43 43 43 43 42 42 42 42 42 42 42 42 42 42 42 42 41 40 39 39 39 40 40 40 41 41 41 42 42 42 41 40 40 40 40 39 38 37 36 35 34
43 42 42 42 42 41 41 41 41 41 41 41 41 41 41 40 40 40 39 38 38 38 38 39 39 40 40 40 40 40 40 40 39 39 39 38 38 37 36 35 34 32 31
42 41 41 41 41 41 40 40 39 39 39 39 39 39 39 39 39 38 38 37 37 37 37 38 38 39 39 39 39 39 38 38 38 37 37 37 36 36 34 33 31 30 29
41 41 40 40 40 40 40 39 39 38 38 38 38 38 37 37 37 37 37 37 36 37 37 37 38 38 38 38 37 37 37 36 36 36 35 35 34 33 32 31 29 28 26
40 40 40 39 39 39 39 39 38 37 37 37 36 36 36 36 36 36 36 36 36 36 36 37 37 37 36 36 36 35 35 34 34 34 33 32 31 31 30 28 27 25 24
39 39 38 38 38 38 38 38 37 36 36 36 36 36 36 36 36 36 36 36 36 35 35 35 35 35 34 34 34 33 33 33 33 32 31 30 29 28 27 26 24 23 21
38 37 37 37 37 37 37 37 36 36 35 35 35 35 35 35 35 35 34 34 34 34 34 33 33 33 33 32 32 31 31 31 30 29 29 28 27 26 24 23 21 21 20
Wind_Direction
272 273 274 275 276 277 279 281 283 284 285 286 287 289 289 290 291 292 292 292 292 292 291 290 288 287 285 283 282 281 279 279 279 278 276 275 274 273 272 271 270 268 267
272 273 274 275 277 278 281 283 284 284 285 286 287 288 289 290 290 291 291 292 292 291 291 292 291 290 288 285 283 282 280 280 280 279 277 276 275 273 272 271 271 270 269
275 275 276 278 279 280 282 284 285 286 287 287 288 289 290 290 291 291 291 291 291 290 291 292 293 292 291 288 286 284 282 281 281 280 279 277 276 275 274 273 272 271 270
278 279 279 280 281 282 284 286 287 287 288 288 289 290 290 290 290 291 291 291 290 290 290 291 292 292 292 291 289 287 285 284 283 282 280 278 278 277 276 275 274 272 271
281 281 281 282 283 284 285 287 287 288 289 290 290 290 291 290 290 290 290 290 290 290 289 290 291 291 292 291 290 289 287 286 285 284 283 281 280 278 277 276 275 274 273
283 282 283 284 285 286 287 287 288 289 290 291 290 291 291 290 289 290 290 291 291 291 291 291 291 291 292 292 291 290 289 288 287 286 284 283 282 280 278 277 276 275 275
283 283 284 284 285 286 287 288 289 290 291 292 291 291 291 291 291 291 291 292 292 292 292 292 292 292 292 292 292 292 291 291 290 288 287 285 283 281 280 279 278 276 276
283 284 285 286 286 288 288 289 290 291 292 292 292 292 292 292 292 292 293 293 293 292 292 293 293 293 293 293 292 292 292 292 291 290 289 288 286 284 282 281 280 279 278
284 285 286 287 287 287 289 289 290 291 291 292 292 291 292 292 292 293 293 294 293 293 293 293 293 293 293 293 293 293 293 292 292 291 290 289 289 287 285 283 281 280 279
285 285 285 286 287 287 288 289 290 291 291 292 292 291 291 292 293 293 294 294 294 294 294 294 294 294 294 294 294 294 294 293 293 292 292 291 291 290 288 286 284 282 280
286 286 286 287 287 287 288 289 290 290 291 291 292 292 292 292 293 294 294 294 295 295 295 295 295 295 295 296 296 296 295 295 295 294 294 293 292 291 290 288 286 284 283
288 288 288 288 288 289 289 289 290 290 290 290 291 292 292 293 293 294 294 294 295 295 295 295 296 296 297 297 297 297 297 297 297 296 296 295 294 293 292 291 289 287 286
289 289 289 289 289 289 289 290 290 290 290 289 290 291 292 292 293 293 294 294 295 296 296 297 297 298 298 298 298 298 298 298 298 298 298 297 297 295 294 292 291 290 288
289 288 288 288 288 288 289 290 290 290 290 290 289 290 291 292 292 293 294 295 295 296 296 297 298 299 299 299 299 299 300 300 301 301 300 299 299 297 295 294 293 291 290
288 288 288 288 288 288 289 290 290 290 290 290 290 290 291 292 292 293 294 294 295 296 297 297 299 300 300 300 301 301 302 303 303 303 302 302 300 299 297 295 294 293 292
287 287 287 287 288 289 290 290 290 290 290 290 290 291 291 292 292 292 293 294 295 296 296 297 299 300 301 302 302 303 304 305 305 305 304 303 302 300 299 298 296 295 294
286 286 286 287 288 289 289 289 289 289 289 289 290 291 292 292 291 291 292 293 294 296 296 297 299 300 301 303 304 305 306 306 307 306 306 305 304 303 302 300 298 297 296
286 286 286 287 287 288 288 289 288 288 288 288 289 290 291 291 291 291 292 293 294 295 297 298 299 300 302 303 305 306 307 308 308 308 307 306 306 305 304 302 301 300 299
286 286 286 286 287 287 288 288 288 288 288 288 288 289 290 290 291 292 292 293 294 295 297 298 299 301 302 304 305 306 307 308 309 309 308 308 308 307 306 305 304 303 302
286 286 286 286 287 287 288 288 288 288 288 288 288 288 289 290 292 292 293 293 294 296 297 299 300 302 303 304 305 306 308 308 309 309 309 309 309 309 308 307 306 304 304
285 285 286 287 287 287 287 288 288 289 289 288 288 288 290 291 292 293 293 294 295 296 298 300 301 303 303 304 305 307 308 308 309 310 310 310 310 310 309 308 307 306 305
285 285 286 286 286 287 287 288 288 289 289 288 289 289 290 291 292 293 293 294 295 296 298 300 301 303 304 305 305 306 307 308 309 310 311 311 310 310 310 309 308 307 306
286 286 286 286 286 286 287 287 288 288 288 288 289 289 290 292 293 293 293 294 295 296 298 299 301 303 305 305 306 308 308 309 310 311 311 311 311 311 311 310 309 307 307
286 287 286 286 286 286 287 287 287 287 288 288 289 290 291 292 293 293 293 294 295 296 297 298 301 303 304 305 307 309 309 309 311 312 312 312 312 312 312 311 310 308 307
286 286 286 286 286 286 287 287 286 286 287 289 290 291 291 292 293 293 293 294 295 296 297 299 300 301 303 305 308 309 309 311 312 313 313 313 313 313 313 312 311 310 309
286 286 286 286 286 286 287 287 286 287 287 289 290 291 292 293 293 293 293 293 295 296 298 299 300 301 303 306 308 309 311 312 313 314 315 315 315 315 314 314 313 312 310
Height
5690 5690 5689 5688 5687 5686 5685 5684 5682 5680 5678 5676 5674 5671 5668 5666 5663 5660 5656 5653 5650 5647 5644 5641 5639 5636 5634 5632 5629 5627 5625 5623 5621 5620 5618 5617 5616 5615 5615 5614 5613 5613 5613
5683 5682 5681 5679 5679 5677 5676 5675 5673 5671 5669 5667 5665 5662 5659 5656 5653 5650 5647 5644 5641 5638 5635 5632 5629 5626 5623 5621 5618 5616 5614 5612 5610 5608 5606 5604 5603 5602 5601 5600 5599 5599 5598
5675 5674 5673 5672 5671 5669 5668 5667 5665 5663 5661 5658 5656 5653 5650 5647 5644 5641 5638 5635 5631 5628 5625 5622 5619 5616 5613 5610 5607 5605 5602 5600 5598 5596 5594 5591 5590 5588 5587 5586 5585 5584 5583
5668 5667 5666 5665 5663 5662 5660 5658 5656 5654 5652 5649 5646 5643 5640 5637 5634 5631 5628 5624 5621 5618 5615 5612 5609 5606 5602 5599 5596 5594 5591 5589 5586 5583 5581 5579 5577 5575 5573 5572 5571 5569 5568
5661 5660 5659 5657 5656 5654 5652 5650 5648 5645 5643 5640 5637 5634 5631 5628 5624 5621 5618 5614 5611 5608 5605 5602 5598 5595 5592 5589 5586 5583 5580 5577 5574 5571 5569 5566 5563 5561 5559 5557 5556 5554 5553
5654 5653 5651 5649 5648 5646 5644 5641 5639 5636 5633 5630 5627 5624 5621 5618 5614 5611 5607 5604 5600 5597 5594 5591 5587 5584 5581 5578 5574 5571 5568 5565 5561 5558 5555 5552 5549 5546 5544 5542 5541 5539 5538
5647 5645 5643 5641 5639 5637 5635 5632 5630 5627 5624 5621 5617 5614 5611 5607 5604 5600 5597 5593 5590 5586 5583 5579 5576 5573 5569 5566 5562 5559 5555 5552 5548 5545 5542 5538 5535 5532 5529 5527 5524 5522 5520
5639 5637 5635 5633 5630 5628 5625 5623 5620 5617 5614 5611 5607 5604 5600 5597 5593 5590 5586 5583 5579 5575 5572 5568 5565 5561 5557 5554 5550 5547 5542 5539 5535 5531 5528 5524 5519 5516 5513 5510 5507 5505 5503
5630 5628 5626 5623 5621 5618 5616 5613 5610 5607 5604 5601 5597 5594 5590 5587 5583 5579 5575 5572 5568 5564 5560 5556 5553 5549 5545 5541 5538 5534 5530 5525 5521 5516 5512 5508 5504 5499 5496 5493 5490 5487 5485
5621 5619 5616 5614 5611 5609 5606 5603 5600 5597 5594 5591 5587 5584 5580 5577 5573 5568 5564 5561 5557 5553 5549 5545 5541 5537 5533 5528 5524 5520 5516 5511 5507 5502 5497 5492 5488 5483 5478 5475 5471 5468 5465
5611 5609 5607 5604 5601 5599 5596 5593 5590 5587 5583 5580 5577 5573 5569 5565 5561 5557 5553 5549 5545 5541 5537 5532 5528 5524 5519 5515 5511 5506 5502 5497 5492 5487 5482 5477 5471 5467 5462 5457 5453 5449 5446
5602 5599 5596 5593 5591 5588 5585 5582 5579 5575 5572 5569 5565 5562 5558 5554 5550 5546 5541 5537 5533 5529 5525 5520 5516 5511 5506 5502 5497 5492 5487 5482 5477 5472 5467 5461 5456 5450 5445 5440 5435 5431 5427
5591 5588 5586 5583 5579 5576 5573 5570 5567 5564 5561 5557 5554 5550 5547 5542 5538 5534 5530 5525 5521 5517 5513 5508 5503 5498 5494 5489 5483 5478 5473 5468 5463 5457 5452 5446 5440 5434 5428 5423 5418 5413 5409
5580 5577 5574 5571 5568 5565 5562 5559 5555 5552 5549 5545 5542 5538 5534 5530 5526 5522 5518 5513 5509 5505 5500 5496 5491 5486 5481 5476 5470 5465 5460 5454 5448 5443 5436 5430 5424 5418 5412 5407 5402 5397 5393
5569 5566 5562 5559 5556 5553 5550 5546 5543 5540 5536 5533 5529 5525 5522 5518 5514 5510 5506 5502 5497 5493 5488 5484 5479 5474 5468 5463 5458 5452 5446 5440 5434 5428 5422 5416 5409 5403 5398 5392 5387 5381 5376
5556 5553 5550 5547 5543 5540 5537 5534 5530 5527 5523 5520 5516 5513 5509 5505 5501 5497 5493 5489 5485 5480 5476 5471 5466 5461 5456 5451 5445 5439 5433 5427 5421 5414 5407 5401 5395 5389 5383 5377 5372 5366 5361
5543 5540 5537 5534 5530 5527 5524 5520 5517 5514 5511 5507 5503 5500 5496 5493 5489 5485 5481 5477 5472 5468 5464 5459 5454 5449 5444 5439 5433 5427 5421 5414 5407 5401 5394 5388 5382 5376 5369 5364 5358 5352 5347
5529 5526 5523 5520 5517 5514 5511 5507 5504 5501 5498 5494 5491 5487 5484 5480 5476 5472 5469 5464 5460 5456 5452 5447 5442 5437 5432 5427 5421 5415 5409 5402 5395 5389 5382 5376 5369 5363 5357 5351 5345 5339 5334
5516 5513 5510 5507 5504 5501 5497 5494 5491 5488 5484 5481 5478 5475 5471 5467 5464 5460 5456 5452 5448 5444 5440 5436 5431 5426 5421 5415 5409 5403 5397 5391 5384 5377 5371 5365 5358 5352 5346 5339 5334 5328 5322
5502 5499 5496 5493 5491 5487 5484 5481 5478 5474 5471 5468 5465 5462 5458 5455 5451 5448 5444 5440 5437 5433 5428 5424 5419 5414 5409 5404 5398 5392 5386 5380 5373 5367 5361 5354 5348 5341 5335 5329 5324 5318 5313
5489 5486 5483 5480 5477 5474 5471 5468 5465 5462 5458 5455 5452 5449 5446 5443 5439 5436 5432 5429 5425 5421 5417 5413 5408 5403 5398 5392 5387 5381 5375 5369 5363 5357 5351 5344 5338 5332 5326 5320 5314 5309 5304
5475 5473 5470 5467 5465 5462 5459 5456 5453 5449 5446 5443 5440 5437 5434 5431 5427 5424 5421 5417 5414 5410 5406 5402 5397 5392 5387 5382 5376 5371 5365 5360 5354 5347 5341 5335 5329 5323 5317 5311 5306 5301 5296
5462 5460 5457 5455 5452 5449 5446 5443 5440 5437 5434 5432 5429 5426 5422 5419 5416 5413 5410 5406 5403 5399 5395 5391 5386 5381 5376 5371 5366 5361 5356 5350 5344 5338 5332 5326 5320 5314 5308 5303 5298 5293 5289
5449 5447 5444 5442 5439 5437 5434 5431 5428 5426 5423 5420 5417 5414 5411 5408 5405 5402 5398 5395 5392 5388 5384 5380 5376 5371 5366 5361 5356 5351 5346 5341 5335 5329 5324 5318 5312 5306 5301 5296 5291 5287 5283
5437 5434 5432 5429 5427 5424 5422 5419 5417 5414 5411 5409 5406 5403 5400 5397 5394 5391 5387 5384 5381 5377 5373 5370 5365 5361 5357 5352 5347 5342 5337 5332 5326 5321 5316 5310 5305 5299 5294 5289 5285 5281 5277
5424 5422 5419 5417 5415 5412 5410 5408 5405 5402 5400 5397 5394 5392 5389 5386 5383 5380 5377 5373 5370 5367 5363 5359 5356 5352 5347 5343 5338 5334 5329 5324 5319 5314 5308 5303 5298 5293 5288 5284 5280 5276 5272